Regional Weather Roundup
Issued by NWS Cleveland, OH

Home | Current Version | Previous Version | Graphics & Text | Print | Product List | Glossary On
Versions: 1 2 3 4 5 6 7 8 9 10 11 12 13 14 15 16 17 18 19 20 21 22 23 24 25 26 27 28 29 30 31 32 33 34 35 36 37 38 39 40 41 42 43 44 45 46 47 48 49 50
000
ASUS41 KCLE 052200
RWRCLE
OHIO REGIONAL WEATHER ROUNDUP
NATIONAL WEATHER SERVICE WILMINGTON, OH
500 PM EST MON DEC 05 2016

NOTE: "FAIR" INDICATES FEW OR NO CLOUDS BELOW 12,000 FEET WITH NO
SIGNIFICANT WEATHER AND/OR OBSTRUCTIONS TO VISIBILITY.

OHZ001>008-015>018-024>027-034-035-043-044-052300-
   NORTHWEST OHIO

CITY           SKY/WX    TMP DP  RH WIND       PRES   REMARKS
DEFIANCE       MOCLDY    36  28  73 CALM      30.07F
FINDLAY        FAIR      37  28  70 CALM      30.07S
TOLEDO EXPRESS CLOUDY    36  30  79 SW6       30.08F
TOLEDO EXEC    CLOUDY    37  31  78 SW7       30.09F
LIMA           FAIR      35  31  85 E3        30.05F
$$

OHZ009>014-019>023-028>033-038-089-052300-
   NORTHEAST OHIO

CITY           SKY/WX    TMP DP  RH WIND       PRES   REMARKS
CLE-HOPKINS    CLOUDY    39  28  64 SW6       30.12S
CLE-LAKEFRONT  CLOUDY    38  28  67 SW9       30.09S
CUY CO. ARPT   MOCLDY    39  32  75 SW9       30.09F
LORAIN-ELYRIA  CLOUDY    37  27  67 W7        30.10S
ASHTABULA      CLOUDY    38  31  76 W8        30.08F
AKRON-CANTON   MOCLDY    38  29  70 W5        30.08S
WOOSTER        NOT AVBL
MANSFIELD      MOCLDY    34  28  79 CALM      30.06F
YOUNGSTOWN     CLOUDY    37  29  72 SW5       30.07F
$$

OHZ042-051>053-060>062-070>072-077>081-052300-
  SOUTHWEST OHIO

CITY           SKY/WX    TMP DP  RH WIND       PRES   REMARKS
CINC-COVINGTON CLOUDY    42  33  70 E5        30.02S
CINC-LUNKEN    FAIR      43  35  73 NE6       30.05S
HAMILTON       FAIR      42  32  67 E3        30.05S
DAYTON         NOT AVBL
WRIGHT-PAT AFB FAIR      39  33  79 NE7       30.04S
DAYTON GENERAL FAIR      40  31  70 E5        30.03S
WILMINGTON     FAIR      39  34  82 NE3       30.04R
$$

OHZ036-037-039>041-045>050-054>059-063>069-073>076-082>088-052300-
  CENTRAL AND SOUTHEAST OHIO

CITY           SKY/WX    TMP DP  RH WIND       PRES   REMARKS
COLUMBUS       MOCLDY    38  31  76 E5        30.07S
OSU AIRPORT    FAIR      36  31  82 E3        30.06S
BOLTON FIELD   CLEAR     37  30  75 E3        30.06S
RICKENBACK AFB NOT AVBL
NEWARK         FAIR      38  29  70 CALM      30.07S
MARION         FAIR      35  28  75 CALM      30.07F
LANCASTER      FAIR      38  32  79 NE7       30.07S
ZANESVILLE     FAIR      40  29  64 CALM      30.08R
NEW PHILLY     MOCLDY    38  30  73 CALM      30.10S
$$




USA.gov is the U.S. government's official web portal to all federal, state and local government web resources and services.